• MPC Preparation (Info)

  • MPEC 2016-O146: 2014 KV101

    The following Minor Planet Electronic Circular may be linked-to from your own Web pages, but must not otherwise be redistributed electronically.

    A form allowing access to any MPEC is at the bottom of this page.


    Read MPEC 2016-O145 Read MPEC 2016-O147


    M.P.E.C. 2016-O146                               Issued 2016 July 17, 08:16 UT
    
         The Minor Planet Electronic Circulars contain information on unusual
             minor planets and routine data on comets.  They are published
        on behalf of Division F of the International Astronomical Union by the
              Minor Planet Center, Smithsonian Astrophysical Observatory,
                              Cambridge, MA 02138, U.S.A.
    
                 Prepared using the Tamkin Foundation Computer Network
    
                                  MPC@CFA.HARVARD.EDU
                URL https://www.minorplanetcenter.net/    ISSN 1523-6714
    
                                      2014 KV101
    
    Observations:
         K14KA1V  C2011 04 30.40123 14 43 00.230-00 15 26.27         22.3 wLEO146F51
         K14KA1V  C2011 04 30.41477 14 43 00.151-00 15 25.73         22.4 wLEO146F51
         K14KA1V  C2011 04 30.42982 14 43 00.068-00 15 25.47         22.3 wLEO146F51
         K14KA1V  C2012 05 18.36907 14 49 06.234-00 26 25.53         22.4 wLEO146F51
         K14KA1V  C2012 05 18.38265 14 49 06.167-00 26 25.34         22.3 wLEO146F51
         K14KA1V  C2012 05 18.39631 14 49 06.097-00 26 24.99         22.4 wLEO146F51
         K14KA1V  C2012 05 18.40995 14 49 06.022-00 26 24.54         22.3 wLEO146F51
         K14KA1V  C2013 05 10.39101 14 57 48.375-00 48 48.25         22.6 wLEO146F51
         K14KA1V  C2013 05 10.40585 14 57 48.288-00 48 47.97         22.4 wLEO146F51
         K14KA1V  C2013 05 10.42073 14 57 48.209-00 48 47.55         22.6 wLEO146F51
         K14KA1V  C2013 05 10.43559 14 57 48.126-00 48 47.07         22.4 wLEO146F51
         K14KA1V* C2014 05 21.39458 15 04 52.290-01 04 15.26         22.4 wLEO146F51
         K14KA1V  C2014 05 21.40659 15 04 52.231-01 04 14.99         22.4 wLEO146F51
         K14KA1V  C2014 05 21.41859 15 04 52.157-01 04 14.80         22.6 wLEO146F51
         K14KA1V  C2014 05 21.43056 15 04 52.085-01 04 14.74         22.2 wLEO146F51
         K14KA1V  C2014 06 29.35483 15 01 53.757-01 00 04.66         22.2 wLEO146F51
         K14KA1V  C2014 06 29.36789 15 01 53.696-01 00 04.81         22.4 wLEO146F51
         K14KA1V  C2014 06 29.38096 15 01 53.653-01 00 04.75         22.1 wLEO146F51
         K14KA1V  C2014 06 29.39406 15 01 53.603-01 00 05.10         22.4 wLEO146F51
         K14KA1V  C2014 07 30.26414 15 01 03.721-01 08 59.58         22.7 wLEO146F51
         K14KA1V  C2014 07 30.27568 15 01 03.715-01 09 00.24         22.3 wLEO146F51
         K14KA1V  C2014 07 30.28720 15 01 03.720-01 09 00.08         22.3 wLEO146F51
         K14KA1V  C2014 07 30.32138 15 01 03.711-01 09 01.37         22.6 wLEO146F51
         K14KA1V  C2015 06 19.34629 15 10 38.534-01 19 01.90         22.6 wLEO146F51
         K14KA1V  C2015 06 19.35929 15 10 38.484-01 19 01.83         22.7 wLEO146F51
         K14KA1V  C2015 06 19.37227 15 10 38.436-01 19 01.79         22.4 wLEO146F51
    
    Observer details:
    F51 Pan-STARRS 1, Haleakala.  Observers B. Gibson, T. Goggia, N. Primak,
        A. Schultz, M. Willman.  Measurers K. Chambers, S. Chastel, Y.-T. Chen,
        L. Denneau, H. Flewelling, M. Holman, M. Huber, R. Jedicke, M. Lackner,
        E. Lilly, H.-W. Lin, E. Magnier, M. Micheli, M. Payne, P. Veres,
        R. Wainscoat, C. Waters, R. Weryk.  1.8-m Ritchey-Chretien + CCD.
    
    Orbital elements:
    2014 KV101
    Epoch 2016 July 31.0 TT = JDT 2457600.5                 MPC
    M 324.18174              (2000.0)            P               Q
    n   0.00395965     Peri.  128.46806     +0.33451573     +0.93738476
    a  39.5699183      Node   160.39448     -0.92935074     +0.34519833
    e   0.2610888      Incl.   16.80317     -0.15622559     -0.04634565
    P 249              H    7.0           G   0.15           U   2
    Residuals in seconds of arc
    110430 F51  0.0   0.0     130510 F51  0.1+  0.0     140629 F51  0.2-  0.1-
    110430 F51  0.0   0.1+    130510 F51  0.1+  0.1+    140730 F51  0.1+  0.2+
    110430 F51  0.0   0.1-    140521 F51  0.0   0.0     140730 F51  0.0   0.1-
    120518 F51  0.2-  0.0     140521 F51  0.1+  0.0     140730 F51  0.1+  0.3+
    120518 F51  0.1-  0.1-    140521 F51  0.0   0.0     140730 F51  0.0   0.0
    120518 F51  0.0   0.0     140521 F51  0.1-  0.2-    150619 F51  0.1-  0.1-
    120518 F51  0.0   0.2+    140629 F51  0.2+  0.0     150619 F51  0.0   0.1-
    130510 F51  0.0   0.0     140629 F51  0.1-  0.0     150619 F51  0.1+  0.0
    130510 F51  0.0   0.1-    140629 F51  0.1-  0.1+
    
    Ephemeris:
    2014 KV101               a,e,i = 39.57, 0.26, 17                 q = 29.239
    Date    TT    R. A. (2000) Decl.     Delta      r     Elong.  Phase     V
    2016 06 17    15 19 01.6 -01 38 49  31.7399 32.5134   139.0     1.2    22.2
    ...
    2016 07 02    15 18 02.3 -01 39 40  31.9024 32.5039   125.5     1.5    22.3
    ...
    2016 07 10    15 17 38.7 -01 41 10  32.0053 32.4988   118.2     1.6    22.3
    ...
    2016 07 16    15 17 25.3 -01 42 46  32.0884 32.4950   112.8     1.7    22.3
    2016 07 17    15 17 23.4 -01 43 04  32.1026 32.4944   111.8     1.7    22.3
    2016 07 18    15 17 21.6 -01 43 23  32.1170 32.4937   110.9     1.7    22.3
    ...
    2016 07 24    15 17 13.3 -01 45 28  32.2051 32.4899   105.4     1.7    22.3
    ...
    2016 08 01    15 17 08.5 -01 48 49  32.3268 32.4849    98.1     1.8    22.3
    ...
    2016 08 16    15 17 19.4 -01 56 33  32.5601 32.4754    84.3     1.8    22.3
    
    A. U. Tomatic                (C) Copyright 2016 MPC           M.P.E.C. 2016-O146
    

    Read MPEC 2016-O145 Read MPEC 2016-O147


    MPEC number:

    Enter an MPEC number in one of the following forms:

    • 1997-B01 (the full form)
    • J97B01 (the packed version of the full form)
    • B01 (the abbreviated form)